01/05/2024 08:45:00,0.495
01/05/2024 09:00:00,0.494
01/05/2024 09:15:00,0.494
01/05/2024 09:30:00,0.493
01/05/2024 09:45:00,0.493
01/05/2024 10:00:00,0.493
01/05/2024 10:15:00,0.492
01/05/2024 10:30:00,0.492
01/05/2024 10:45:00,0.491
01/05/2024 11:00:00,0.49
01/05/2024 11:15:00,0.489
01/05/2024 11:30:00,0.489
01/05/2024 11:45:00,0.488
01/05/2024 12:00:00,0.488
01/05/2024 12:15:00,0.488
01/05/2024 12:30:00,0.486
01/05/2024 12:45:00,0.485
01/05/2024 13:00:00,0.484
01/05/2024 13:15:00,0.484
01/05/2024 13:30:00,0.483
01/05/2024 13:45:00,0.483
01/05/2024 14:00:00,0.483
01/05/2024 14:15:00,0.482
01/05/2024 14:30:00,0.482
01/05/2024 14:45:00,0.482
01/05/2024 15:00:00,0.482
01/05/2024 15:15:00,0.481
01/05/2024 15:30:00,0.481
01/05/2024 15:45:00,0.48
01/05/2024 16:00:00,0.48
01/05/2024 16:15:00,0.479
01/05/2024 16:30:00,0.479
01/05/2024 16:45:00,0.479
01/05/2024 17:00:00,0.479
01/05/2024 17:15:00,0.478
01/05/2024 17:30:00,0.478
01/05/2024 17:45:00,0.478
01/05/2024 18:00:00,0.477
01/05/2024 18:15:00,0.477
01/05/2024 18:30:00,0.478
01/05/2024 18:45:00,0.478
01/05/2024 19:00:00,0.477
01/05/2024 19:15:00,0.478
01/05/2024 19:30:00,0.477
01/05/2024 19:45:00,0.477
01/05/2024 20:00:00,0.475
01/05/2024 20:15:00,0.475
01/05/2024 20:30:00,0.475
01/05/2024 20:45:00,0.477
01/05/2024 21:00:00,0.475
01/05/2024 21:15:00,0.477
01/05/2024 21:30:00,0.477
01/05/2024 21:45:00,0.478
01/05/2024 22:00:00,0.478
01/05/2024 22:15:00,0.478
01/05/2024 22:30:00,0.478
01/05/2024 22:45:00,0.479
01/05/2024 23:00:00,0.479
01/05/2024 23:15:00,0.479
01/05/2024 23:30:00,0.479
01/05/2024 23:45:00,0.479
02/05/2024 00:00:00,0.479
02/05/2024 00:15:00,0.479
02/05/2024 00:30:00,0.479
02/05/2024 00:45:00,0.479
02/05/2024 01:00:00,0.479
02/05/2024 01:15:00,0.479
02/05/2024 01:30:00,0.479
02/05/2024 01:45:00,0.48
02/05/2024 02:00:00,0.48
02/05/2024 02:15:00,0.479
02/05/2024 02:30:00,0.48
02/05/2024 02:45:00,0.48
02/05/2024 03:00:00,0.48
02/05/2024 03:15:00,0.479
02/05/2024 03:30:00,0.48
02/05/2024 03:45:00,0.48
02/05/2024 04:00:00,0.481
02/05/2024 04:15:00,0.481
02/05/2024 04:30:00,0.48
02/05/2024 04:45:00,0.48
02/05/2024 05:00:00,0.48
02/05/2024 05:15:00,0.479
02/05/2024 05:30:00,0.479
02/05/2024 05:45:00,0.479
02/05/2024 06:00:00,0.479
02/05/2024 06:15:00,0.479
02/05/2024 06:30:00,0.479
02/05/2024 06:45:00,0.479
02/05/2024 07:00:00,0.479
02/05/2024 07:15:00,0.479
02/05/2024 07:30:00,0.478
02/05/2024 07:45:00,0.479
02/05/2024 08:00:00,0.478
02/05/2024 08:15:00,0.478
02/05/2024 08:30:00,0.478
02/05/2024 08:45:00,0.478
02/05/2024 09:00:00,0.475
02/05/2024 09:15:00,0.477
02/05/2024 09:30:00,0.475
02/05/2024 09:45:00,0.474
02/05/2024 10:00:00,0.474
02/05/2024 10:15:00,0.474
02/05/2024 10:30:00,0.474
02/05/2024 10:45:00,0.473
02/05/2024 11:00:00,0.472
02/05/2024 11:15:00,0.472
02/05/2024 11:30:00,0.472
02/05/2024 11:45:00,0.472
02/05/2024 12:00:00,0.472
02/05/2024 12:15:00,0.472
02/05/2024 12:30:00,0.472
02/05/2024 12:45:00,0.472
02/05/2024 13:00:00,0.472
02/05/2024 13:15:00,0.472
02/05/2024 13:30:00,0.47
02/05/2024 13:45:00,0.47
02/05/2024 14:00:00,0.47
02/05/2024 14:15:00,0.47
02/05/2024 14:30:00,0.469
02/05/2024 14:45:00,0.468
02/05/2024 15:00:00,0.47
02/05/2024 15:15:00,0.468
02/05/2024 15:30:00,0.468
02/05/2024 15:45:00,0.468
02/05/2024 16:00:00,0.468
02/05/2024 16:15:00,0.468
02/05/2024 16:30:00,0.465
02/05/2024 16:45:00,0.465
02/05/2024 17:00:00,0.464
02/05/2024 17:15:00,0.464
02/05/2024 17:30:00,0.464
02/05/2024 17:45:00,0.464
02/05/2024 18:00:00,0.462
02/05/2024 18:15:00,0.463
02/05/2024 18:30:00,0.463
02/05/2024 18:45:00,0.462
02/05/2024 19:00:00,0.462
02/05/2024 19:15:00,0.462
02/05/2024 19:30:00,0.461
02/05/2024 19:45:00,0.461
02/05/2024 20:00:00,0.461
02/05/2024 20:15:00,0.461
02/05/2024 20:30:00,0.46
02/05/2024 20:45:00,0.46
02/05/2024 21:00:00,0.459
02/05/2024 21:15:00,0.459
02/05/2024 21:30:00,0.459
02/05/2024 21:45:00,0.458
02/05/2024 22:00:00,0.458
02/05/2024 22:15:00,0.458
02/05/2024 22:30:00,0.458
02/05/2024 22:45:00,0.458
02/05/2024 23:00:00,0.457
02/05/2024 23:15:00,0.456
02/05/2024 23:30:00,0.456
02/05/2024 23:45:00,0.456
03/05/2024 00:00:00,0.456
03/05/2024 00:15:00,0.454
03/05/2024 00:30:00,0.453
03/05/2024 00:45:00,0.453
03/05/2024 01:00:00,0.453
03/05/2024 01:15:00,0.452
03/05/2024 01:30:00,0.451
03/05/2024 01:45:00,0.451
03/05/2024 02:00:00,0.451
03/05/2024 02:15:00,0.45
03/05/2024 02:30:00,0.45
03/05/2024 02:45:00,0.45
03/05/2024 03:00:00,0.449
03/05/2024 03:15:00,0.449
03/05/2024 03:30:00,0.449
03/05/2024 03:45:00,0.449
03/05/2024 04:00:00,0.449
03/05/2024 04:15:00,0.449
03/05/2024 04:30:00,0.449
03/05/2024 04:45:00,0.449
03/05/2024 05:00:00,0.449
03/05/2024 05:15:00,0.449
03/05/2024 05:30:00,0.448
03/05/2024 05:45:00,0.447
03/05/2024 06:00:00,0.447
03/05/2024 06:15:00,0.447
03/05/2024 06:30:00,0.447
03/05/2024 06:45:00,0.447
03/05/2024 07:00:00,0.446
03/05/2024 07:15:00,0.445
03/05/2024 07:30:00,0.446
03/05/2024 07:45:00,0.445
03/05/2024 08:00:00,0.445
03/05/2024 08:15:00,0.445
03/05/2024 08:30:00,0.445
03/05/2024 08:45:00,0.445
03/05/2024 09:00:00,0.445
03/05/2024 09:15:00,0.445
03/05/2024 09:30:00,0.443
03/05/2024 09:45:00,0.445
03/05/2024 10:00:00,0.443
03/05/2024 10:15:00,0.443
03/05/2024 10:30:00,0.443
03/05/2024 10:45:00,0.443
03/05/2024 11:00:00,0.443
03/05/2024 11:15:00,0.443
03/05/2024 11:30:00,0.443
03/05/2024 11:45:00,0.443
03/05/2024 12:00:00,0.441
03/05/2024 12:15:00,0.441
03/05/2024 12:30:00,0.441
03/05/2024 12:45:00,0.441
03/05/2024 13:00:00,0.441
03/05/2024 13:15:00,0.441
03/05/2024 13:30:00,0.441
03/05/2024 13:45:00,0.441
03/05/2024 14:00:00,0.439
03/05/2024 14:15:00,0.44
03/05/2024 14:30:00,0.44
03/05/2024 14:45:00,0.44
03/05/2024 15:00:00,0.44
03/05/2024 15:15:00,0.439
03/05/2024 15:30:00,0.439
03/05/2024 15:45:00,0.439
03/05/2024 16:00:00,0.439
03/05/2024 16:15:00,0.439
03/05/2024 16:30:00,0.439
03/05/2024 16:45:00,0.439
03/05/2024 17:00:00,0.438
03/05/2024 17:15:00,0.438
03/05/2024 17:30:00,0.438
03/05/2024 17:45:00,0.438
03/05/2024 18:00:00,0.438
03/05/2024 18:15:00,0.438
03/05/2024 18:30:00,0.438
03/05/2024 18:45:00,0.438
03/05/2024 19:00:00,0.438
03/05/2024 19:15:00,0.438
03/05/2024 19:30:00,0.438
03/05/2024 19:45:00,0.437
03/05/2024 20:00:00,0.437
03/05/2024 20:15:00,0.436
03/05/2024 20:30:00,0.436
03/05/2024 20:45:00,0.435
03/05/2024 21:00:00,0.435
03/05/2024 21:15:00,0.435
03/05/2024 21:30:00,0.435
03/05/2024 21:45:00,0.435
03/05/2024 22:00:00,0.435
03/05/2024 22:15:00,0.432
03/05/2024 22:30:00,0.432
03/05/2024 22:45:00,0.432
03/05/2024 23:00:00,0.432
03/05/2024 23:15:00,0.432
03/05/2024 23:30:00,0.432
03/05/2024 23:45:00,0.432
04/05/2024 00:00:00,0.432
04/05/2024 00:15:00,0.432
04/05/2024 00:30:00,0.432
04/05/2024 00:45:00,0.432
04/05/2024 01:00:00,0.431
04/05/2024 01:15:00,0.43
04/05/2024 01:30:00,0.43
04/05/2024 01:45:00,0.43
04/05/2024 02:00:00,0.43
04/05/2024 02:15:00,0.43
04/05/2024 02:30:00,0.43
04/05/2024 02:45:00,0.43
04/05/2024 03:00:00,0.43
04/05/2024 03:15:00,0.43
04/05/2024 03:30:00,0.43
04/05/2024 03:45:00,0.43
04/05/2024 04:00:00,0.43
04/05/2024 04:15:00,0.43
04/05/2024 04:30:00,0.43
04/05/2024 04:45:00,0.429
04/05/2024 05:00:00,0.429
04/05/2024 05:15:00,0.429
04/05/2024 05:30:00,0.428
04/05/2024 05:45:00,0.428
04/05/2024 06:00:00,0.428
04/05/2024 06:15:00,0.429
04/05/2024 06:30:00,0.429
04/05/2024 06:45:00,0.429
04/05/2024 07:00:00,0.428
04/05/2024 07:15:00,0.429
04/05/2024 07:30:00,0.429
04/05/2024 07:45:00,0.429
04/05/2024 08:00:00,0.428
04/05/2024 08:15:00,0.428
04/05/2024 08:30:00,0.428
04/05/2024 08:45:00,0.428
04/05/2024 09:00:00,0.428
04/05/2024 09:15:00,0.428
04/05/2024 09:30:00,0.428
04/05/2024 09:45:00,0.428
04/05/2024 10:00:00,0.428
04/05/2024 10:15:00,0.428
04/05/2024 10:30:00,0.428
04/05/2024 10:45:00,0.428
04/05/2024 11:00:00,0.428
04/05/2024 11:15:00,0.428
04/05/2024 11:30:00,0.428
04/05/2024 11:45:00,0.428
04/05/2024 12:00:00,0.428
04/05/2024 12:15:00,0.428
04/05/2024 12:30:00,0.428
04/05/2024 12:45:00,0.428
04/05/2024 13:00:00,0.428
04/05/2024 13:15:00,0.428
04/05/2024 13:30:00,0.428
04/05/2024 13:45:00,0.428
04/05/2024 14:00:00,0.428
04/05/2024 14:15:00,0.428
04/05/2024 14:30:00,0.428
04/05/2024 14:45:00,0.428
04/05/2024 15:00:00,0.428
04/05/2024 15:15:00,0.428
04/05/2024 15:30:00,0.428
04/05/2024 15:45:00,0.428
04/05/2024 16:00:00,0.428
04/05/2024 16:15:00,0.428
04/05/2024 16:30:00,0.428
04/05/2024 16:45:00,0.428
04/05/2024 17:00:00,0.428
04/05/2024 17:15:00,0.428
04/05/2024 17:30:00,0.428
04/05/2024 17:45:00,0.428
04/05/2024 18:00:00,0.428
04/05/2024 18:15:00,0.428
04/05/2024 18:30:00,0.428
04/05/2024 18:45:00,0.428
04/05/2024 19:00:00,0.428
04/05/2024 19:15:00,0.428
04/05/2024 19:30:00,0.428
04/05/2024 19:45:00,0.428
04/05/2024 20:00:00,0.428
04/05/2024 20:15:00,0.428
04/05/2024 20:30:00,0.428
04/05/2024 20:45:00,0.428
04/05/2024 21:00:00,0.428
04/05/2024 21:15:00,0.428
04/05/2024 21:30:00,0.428
04/05/2024 21:45:00,0.428
04/05/2024 22:00:00,0.428
04/05/2024 22:15:00,0.428
04/05/2024 22:30:00,0.428
04/05/2024 22:45:00,0.428
04/05/2024 23:00:00,0.428
04/05/2024 23:15:00,0.428
04/05/2024 23:30:00,0.428
04/05/2024 23:45:00,0.428
05/05/2024 00:00:00,0.428
05/05/2024 00:15:00,0.428
05/05/2024 00:30:00,0.428
05/05/2024 00:45:00,0.428
05/05/2024 01:00:00,0.428
05/05/2024 01:15:00,0.428
05/05/2024 01:30:00,0.428
05/05/2024 01:45:00,0.428
05/05/2024 02:00:00,0.428
05/05/2024 02:15:00,0.428
05/05/2024 02:30:00,0.428
05/05/2024 02:45:00,0.428
05/05/2024 03:00:00,0.428
05/05/2024 03:15:00,0.428
05/05/2024 03:30:00,0.428
05/05/2024 03:45:00,0.427
05/05/2024 04:00:00,0.427
05/05/2024 04:15:00,0.427
05/05/2024 04:30:00,0.427
05/05/2024 04:45:00,0.427
05/05/2024 05:00:00,0.426
05/05/2024 05:15:00,0.427
05/05/2024 05:30:00,0.427
05/05/2024 05:45:00,0.427
05/05/2024 06:00:00,0.426
05/05/2024 06:15:00,0.426
05/05/2024 06:30:00,0.427
05/05/2024 06:45:00,0.427
05/05/2024 07:00:00,0.426
05/05/2024 07:15:00,0.427
05/05/2024 07:30:00,0.427
05/05/2024 07:45:00,0.427
05/05/2024 08:00:00,0.427
05/05/2024 08:15:00,0.428
05/05/2024 08:30:00,0.427
05/05/2024 08:45:00,0.427
05/05/2024 09:00:00,0.427
05/05/2024 09:15:00,0.427
05/05/2024 09:30:00,0.427
05/05/2024 09:45:00,0.427
05/05/2024 10:00:00,0.426
05/05/2024 10:15:00,0.426
05/05/2024 10:30:00,0.426
05/05/2024 10:45:00,0.426
05/05/2024 11:00:00,0.426
05/05/2024 11:15:00,0.426
05/05/2024 11:30:00,0.426
05/05/2024 11:45:00,0.426
05/05/2024 12:00:00,0.426
05/05/2024 12:15:00,0.426
05/05/2024 12:30:00,0.427
05/05/2024 12:45:00,0.426
05/05/2024 13:00:00,0.427
05/05/2024 13:15:00,0.428
05/05/2024 13:30:00,0.428
05/05/2024 13:45:00,0.427
05/05/2024 14:00:00,0.427
05/05/2024 14:15:00,0.427
05/05/2024 14:30:00,0.427
05/05/2024 14:45:00,0.428
05/05/2024 15:00:00,0.428
05/05/2024 15:15:00,0.428
05/05/2024 15:30:00,0.428
05/05/2024 15:45:00,0.428
05/05/2024 16:00:00,0.428
05/05/2024 16:15:00,0.428
05/05/2024 16:30:00,0.428
05/05/2024 16:45:00,0.428
05/05/2024 17:00:00,0.428
05/05/2024 17:15:00,0.428
05/05/2024 17:30:00,0.428
05/05/2024 17:45:00,0.43
05/05/2024 18:00:00,0.43
05/05/2024 18:15:00,0.43
05/05/2024 18:30:00,0.431
05/05/2024 18:45:00,0.432
05/05/2024 19:00:00,0.435
05/05/2024 19:15:00,0.436
05/05/2024 19:30:00,0.438
05/05/2024 19:45:00,0.439
05/05/2024 20:00:00,0.443
05/05/2024 20:15:00,0.446
05/05/2024 20:30:00,0.449
05/05/2024 20:45:00,0.451
05/05/2024 21:00:00,0.457
05/05/2024 21:15:00,0.463
05/05/2024 21:30:00,0.474
05/05/2024 21:45:00,0.492
05/05/2024 22:00:00,0.529
05/05/2024 22:15:00,0.583
05/05/2024 22:30:00,0.613
05/05/2024 22:45:00,0.63
05/05/2024 23:00:00,0.642
05/05/2024 23:15:00,0.652
05/05/2024 23:30:00,0.662
05/05/2024 23:45:00,0.667
06/05/2024 00:00:00,0.671
06/05/2024 00:15:00,0.673
06/05/2024 00:30:00,0.673
06/05/2024 00:45:00,0.671
06/05/2024 01:00:00,0.669
06/05/2024 01:15:00,0.667
06/05/2024 01:30:00,0.664
06/05/2024 01:45:00,0.659
06/05/2024 02:00:00,0.656
06/05/2024 02:15:00,0.652
06/05/2024 02:30:00,0.649
06/05/2024 02:45:00,0.645
06/05/2024 03:00:00,0.641
06/05/2024 03:15:00,0.637
06/05/2024 03:30:00,0.633
06/05/2024 03:45:00,0.628
06/05/2024 04:00:00,0.625
06/05/2024 04:15:00,0.622
06/05/2024 04:30:00,0.619
06/05/2024 04:45:00,0.615
06/05/2024 05:00:00,0.613
06/05/2024 05:15:00,0.61
06/05/2024 05:30:00,0.608
06/05/2024 05:45:00,0.603
06/05/2024 06:00:00,0.601
06/05/2024 06:15:00,0.598
06/05/2024 06:30:00,0.594
06/05/2024 06:45:00,0.592
06/05/2024 07:00:00,0.59
06/05/2024 07:15:00,0.587
06/05/2024 07:30:00,0.586
06/05/2024 07:45:00,0.586
